EHI
0 0 0 0 0 0 0 0 0 0 0 0 0 0 0 0 0 0 0 0 0 0 0 0 0 0 1 3 2 1 0 0 0 0 0 0 0 0
0 0 0 0 0 0 0 0 0 0 0 0 0 0 0 0 0 0 0 0 0 0 0 0 0 0 0 1 1 0 0 0 0 0 0 0 0 0
0 0 0 0 0 0 0 0 0 0 0 0 0 0 0 0 0 0 0 0 0 0 0 0 0 0 0 0 0 0 0 0 0 0 0 0 0 0
0 0 0 0 0 0 0 0 0 0 0 0 0 0 0 0 0 0 0 0 0 0 0 0 0 0 0 0 0 0 0 0 0 0 0 0 0 0
0 0 0 0 0 0 0 0 0 0 0 0 0 0 0 0 0 0 0 0 0 0 0 0 0 0 0 0 0 0 0 0 0 0 0 0 0 0
0 0 0 0 0 0 0 0 0 0 0 0 0 0 0 0 0 0 0 0 0 0 0 0 0 0 0 0 0 0 0 0 0 0 0 0 0 0
0 0 0 0 0 0 0 0 0 0 0 0 0 0 0 0 0 0 0 0 0 0 0 0 0 0 0 0 0 0 0 0 0 0 0 0 0 0
0 0 0 0 0 0 0 0 0 0 0 0 0 0 0 0 0 0 0 0 0 0 0 0 0 0 0 0 0 0 0 0 0 0 0 0 0 0
0 0 0 0 0 0 0 0 0 0 0 0 0 0 0 0 0 0 0 0 0 0 0 0 0 0 0 0 0 0 0 0 0 0 0 0 0 0
0 0 0 0 0 0 0 0 0 0 0 0 0 0 0 0 0 0 0 0 0 0 0 0 0 0 0 0 0 0 0 0 0 0 0 0 0 0
0 0 0 0 0 0 0 0 0 0 0 0 0 0 0 0 0 0 0 0 0 0 0 0 0 0 0 0 0 0 0 0 0 0 0 0 0 0
0 0 0 0 0 0 0 0 0 0 0 0 0 0 0 0 0 0 0 0 0 0 0 0 0 0 0 0 0 0 0 0 0 0 0 0 0 0
0 0 0 0 0 0 0 0 0 0 0 0 0 0 0 0 0 0 0 0 0 0 0 0 0 0 0 0 0 0 0 0 0 0 0 0 0 0
0 0 0 0 0 0 0 0 0 0 0 0 0 0 0 0 0 0 0 0 0 0 0 0 0 0 0 0 0 0 0 0 0 0 0 0 0 0
0 0 0 0 0 0 0 0 0 0 0 0 0 0 0 0 0 0 0 0 0 0 0 0 0 0 0 0 0 0 0 0 0 0 0 0 0 0
0 0 0 0 0 0 0 0 0 0 0 0 0 0 0 0 0 0 0 0 0 0 0 0 0 0 0 0 0 0 0 0 0 0 0 0 0 0
0 0 0 0 0 0 0 0 0 0 0 0 0 0 0 0 0 0 0 0 0 0 0 0 0 0 0 0 0 0 0 0 0 0 0 0 0 0
0 0 0 0 0 0 0 0 0 0 0 0 0 0 0 0 0 0 0 0 0 0 0 0 0 0 0 0 0 0 0 0 0 0 0 0 0 0
0 0 0 0 0 0 0 0 0 0 0 0 0 0 0 0 0 0 0 0 0 0 0 0 0 0 0 0 0 0 0 0 0 0 0 0 0 0
0 0 0 0 0 0 0 0 0 0 0 0 0 0 0 0 0 0 0 0 0 0 0 0 0 0 0 0 0 0 0 0 0 0 0 0 0 0
0 0 0 0 0 0 0 0 0 0 0 0 0 0 0 0 0 0 0 0 0 0 0 0 0 0 0 0 0 0 0 0 0 0 0 0 0 0
0 0 0 0 0 0 0 0 0 0 0 0 0 0 0 0 0 0 0 0 0 0 0 0 0 0 0 0 0 0 0 0 0 0 0 0 0 0
0 0 0 0 0 0 0 0 0 0 0 0 0 0 0 0 0 0 0 0 0 0 0 0 0 0 0 0 0 0 0 0 0 0 0 0 0 0
Wind_Speed
3 3 2 3 2 3 3 3 3 3 4 4 3 2 2 3 5 5 6 10 12 13 14 14 15 15 17 18 19 20 20 20 20 20 20 20 20 20
3 3 3 3 3 3 3 3 3 4 4 3 3 3 3 3 5 5 6 9 12 13 14 15 15 15 15 17 18 19 19 20 20 20 20 19 19 19
3 3 4 4 3 3 3 2 3 3 4 4 3 3 3 3 3 3 4 5 6 12 13 14 14 15 15 16 17 18 19 19 20 20 20 19 19 19
4 4 5 4 4 3 3 4 3 4 4 5 3 3 4 4 4 4 4 4 5 9 12 14 14 15 15 16 16 17 17 18 19 19 19 19 19 19
5 5 5 4 5 4 4 4 4 4 3 4 4 3 3 3 2 3 3 3 4 6 10 11 13 14 14 15 16 16 17 17 18 18 19 19 19 19
5 5 5 5 6 6 5 5 5 4 3 3 4 3 3 3 1 2 3 2 3 3 5 6 9 12 13 15 16 17 17 17 18 18 18 18 18 18
5 5 6 8 9 7 5 5 5 4 3 3 4 3 3 2 3 2 3 3 3 3 2 3 3 4 7 11 14 16 16 17 18 18 18 18 17 17
6 6 7 8 9 10 10 9 8 7 6 4 4 5 5 5 3 3 2 2 3 2 2 3 3 4 4 5 9 13 15 16 17 18 18 18 17 17
6 6 6 7 7 5 8 9 8 11 11 7 7 7 6 6 5 4 4 4 4 3 2 3 2 3 3 5 10 12 13 15 16 17 17 17 17 16
6 6 6 7 7 6 6 6 6 6 7 7 7 8 8 6 6 6 5 4 3 3 3 3 2 2 2 3 7 10 12 13 14 15 16 16 16 16
6 6 6 6 9 9 6 6 7 7 8 10 10 10 11 11 7 3 3 3 4 3 3 3 2 2 1 2 4 8 10 12 13 14 15 15 15 14
5 6 8 8 9 8 5 5 6 7 5 5 5 7 7 8 10 8 6 5 3 3 4 4 3 2 2 1 1 2 4 7 11 13 14 15 15 10
5 5 5 9 10 10 7 6 9 8 5 5 4 4 4 4 5 6 7 6 6 5 4 4 3 3 3 1 1 2 3 3 4 6 11 14 15 13
6 5 6 9 10 10 8 9 11 8 4 4 4 4 4 5 5 5 7 7 7 7 6 5 4 4 3 2 2 2 2 3 3 4 5 9 11 11
5 9 10 12 11 8 10 12 9 5 4 4 5 6 5 5 4 4 4 5 5 6 6 6 5 4 4 4 3 3 2 3 4 5 6 6 6 7
4 7 10 11 9 9 8 7 5 5 5 6 5 5 4 4 4 3 4 3 3 4 5 5 6 6 4 4 4 3 3 4 5 5 5 4 5 5
3 3 3 3 4 4 4 5 4 4 5 5 5 5 4 4 4 3 3 4 4 4 4 3 3 4 4 5 4 4 4 4 5 6 6 5 4 6
3 4 5 5 5 5 5 5 4 5 5 5 5 5 5 5 4 3 3 4 5 5 5 4 4 3 2 2 4 5 4 4 5 7 5 5 5 5
4 5 6 6 6 5 5 5 5 5 4 5 5 5 5 5 4 4 4 4 4 5 4 4 5 5 5 4 3 5 5 4 5 6 5 4 5 6
5 6 6 6 5 5 5 5 5 4 4 4 5 5 5 4 4 4 4 5 4 4 4 4 5 6 6 5 3 2 5 5 5 6 5 3 3 5
5 5 6 5 5 5 5 5 5 4 4 4 4 5 5 4 4 4 4 6 5 4 5 5 5 7 3 3 3 2 2 3 5 5 6 5 4 4
5 5 5 5 5 5 4 4 4 4 4 4 4 4 4 4 5 5 4 4 4 4 5 3 4 5 4 4 4 4 3 3 4 7 6 3 5 7
6 5 5 4 4 4 4 4 4 4 3 3 3 3 4 4 4 4 4 4 4 4 4 4 4 3 4 4 5 4 5 5 3 4 3 6 4 5
Wind_Direction
279 278 270 263 251 231 214 198 204 251 275 279 286 276 249 233 230 222 229 226 217 215 217 222 223 219 217 215 214 213 212 213 213 213 214 215 216 218
272 278 278 271 274 259 235 218 201 204 241 259 256 270 272 259 238 227 228 229 224 220 219 221 222 220 218 216 214 213 211 211 212 212 212 212 212 214
288 283 278 273 271 269 257 238 223 202 237 266 258 270 270 267 271 248 237 224 225 225 224 225 225 223 220 218 216 214 212 211 211 211 212 211 211 211
279 282 280 283 275 267 258 251 242 222 219 254 269 269 261 260 255 250 245 229 222 226 224 224 224 223 222 219 216 215 214 213 212 212 211 211 210 211
269 269 270 275 274 268 259 253 248 247 218 229 254 253 265 272 275 269 259 248 235 229 224 225 223 223 223 220 217 216 215 213 213 212 211 209 210 211
272 267 266 260 258 262 261 252 247 247 235 229 244 252 258 270 256 261 274 260 252 244 230 224 225 226 226 222 219 216 214 213 213 212 211 210 209 209
280 276 272 271 264 259 260 246 240 236 233 227 235 246 249 254 243 237 247 268 268 244 238 231 220 223 224 224 222 218 214 212 212 211 209 208 207 206
276 280 282 280 278 277 276 264 237 227 225 222 226 228 237 231 228 230 229 243 273 255 214 242 206 220 222 219 219 215 213 212 211 209 207 205 204 204
263 272 282 284 287 280 283 284 271 252 232 217 222 228 230 222 213 228 223 217 232 234 199 249 223 229 230 228 219 216 213 211 209 205 204 202 200 199
257 258 261 273 279 274 274 276 270 267 251 234 225 232 234 227 211 216 225 232 245 239 192 230 223 228 240 231 221 216 213 210 206 202 199 197 195 193
264 264 259 262 271 276 267 266 271 273 268 255 240 241 242 238 217 199 210 211 239 242 204 205 213 210 241 244 229 215 212 208 203 200 195 191 188 185
272 270 265 261 271 275 253 250 262 266 271 276 264 260 251 245 226 209 203 206 213 235 215 193 196 177 228 255 220 202 201 203 199 195 190 185 179 178
266 269 266 271 275 274 260 241 246 254 259 256 258 261 258 247 234 218 207 202 207 223 209 180 186 182 185 208 240 200 184 176 179 188 188 183 181 180
253 260 264 276 277 276 269 256 257 260 251 248 250 251 249 246 240 228 219 214 217 221 207 185 187 185 175 187 210 197 181 172 168 172 175 177 180 181
251 260 270 279 281 274 264 262 260 245 232 236 242 245 243 244 241 236 229 221 226 227 212 197 190 186 185 191 187 181 178 184 175 170 172 179 179 170
270 280 284 280 273 263 267 265 244 228 223 232 238 245 246 242 236 226 222 214 216 229 222 206 195 191 199 199 187 191 185 179 176 174 166 170 168 172
283 290 285 284 281 275 268 259 248 237 234 234 235 243 243 240 240 226 214 207 210 214 211 205 202 199 194 183 189 197 189 185 178 170 168 173 178 178
244 262 271 268 265 267 269 267 252 239 235 231 230 230 233 233 236 230 219 213 216 214 205 192 179 174 177 228 199 192 193 191 178 172 166 173 181 178
228 254 260 261 261 259 257 256 256 251 238 228 226 226 226 227 223 225 225 221 220 212 203 186 181 186 196 205 210 196 186 182 174 172 173 171 179 175
234 252 258 259 258 258 257 255 256 257 244 235 227 223 220 217 219 222 221 220 216 207 201 190 189 193 199 193 179 189 188 176 175 175 166 134 115 125
250 252 255 256 257 257 257 256 252 251 245 234 229 225 220 214 219 222 218 219 212 203 204 206 202 184 158 138 144 158 170 172 159 159 155 148 147 153
252 255 255 254 253 255 258 260 259 255 248 239 231 227 219 210 216 218 214 210 209 208 208 199 163 157 161 171 171 161 147 125 98 95 97 117 161 174
246 249 252 254 253 252 253 256 258 258 249 241 234 226 214 209 210 210 214 213 206 199 190 176 167 170 176 170 165 156 152 148 134 114 74 33 83 113